SL-16 DEB, 23708

Orbit data source: Space-Track

SL-16 DEB, 23708 is space debris in LEO originally from a launch on Tue, 31 Oct 1995 UTC launched from the Tyuratam Missile And Space Complex (TTMTR). Debris objects in space refer to the collection of defunct objects orbiting the Earth. Examples of debris include non-operational satellites, rocket bodies, and fragments generated from explosions, collisions, or faulty payload assembly.

Loading next visibility...
Identifier
23708, 1995-058E
Orbit
LEO
Country
Flag of CISCIS
Related business
Manufacturer
Yuzhnoe
Mission
Spacecraft
Bus & Motor
SEP MOTOR COVER, Unknown motor
Mass
~0 kg wet, ~1 kg dry
Launch date (UTC)
1995-10-31 (31 years ago)
Launch vehicle
Unknown
Launch site
Tyuratam Missile And Space Complex (TTMTR)
Object type
Payload
Rocket body
Debris
Shape & HBR
Unknown
Radar Cross Section
Medium (>0.1 m² and <1 m²)

Expand to show TLE details & history
Last TLE update: 2 days ago

TLE from 2 days ago
0 SL-16 DEB
1 23708U 95058E   26171.31612332  .00000029  00000-0  65546-4 0  9996
2 23708  71.0513  35.9692 0186552 248.7427 226.3028 13.76730097538545
Epoch: 2026-06-20T07:35Z
TLE epoch observation values (Epoch: 2026-06-20T07:35:13.054Z)
Latitude
60.24047°
Longitude
156.949°
Altitude
1,081.32 km
Speed
7.269 km/s
True Right ascension
11h 57m 08s
True Declination
60° 05' 55"
Sunlit
Object was in daylight at epoch
Visualization orbit readout
Latitude
Unknown
Longitude
Unknown
Altitude
Unknown
Speed
Unknown
Apparent Right ascension
Unknown
Apparent Declination
Unknown
Sunlit
N/A
Visualization observer readout
Local Sidereal Time
02:13:10
Azimuth
Unknown
Elevation
Unknown
Doppler factor
Unknown
Orbital elements
Apogee altitude
1,110.61 km
Perigee altitude
836.319 km
Semi-major axis
7,351.601 km
Eccentricity
0.01866
Inclination
71.0513°
RAAN
35.9692°
Arg. of periapsis
248.7427°
True anomaly
224.78192°
Mean anomaly
226.3028°
Eccentric anomaly
225.53991°
Mean motion
3.44326 °/min
Orbital period
104.55 mins
BSTAR
0.000065546
Loading maneuver chart data...
Computing Atmospheric mass density...
Loading historical data...
Loading historical data...
Loading historical data...
Loading historical data...
Loading historical data...
Loading historical data...
Loading historical data...

Documentation

Showing up to 5 results
|